Weather History for KTRK - March, 2014

Change the Weather History Date:

Saturday, March 8, 2014

  Actual Average Record
Temperature  
Mean Temperature 40 °F -  
Max Temperature 62 °F 48 °F 62 °F (1972)
Min Temperature 19 °F 22 °F -2 °F (1964)
Degree Days  
Heating Degree Days 24    
Moisture  
Dew Point 24 °F    
Average Humidity 68    
Maximum Humidity 100    
Minimum Humidity 13    
Precipitation  
Precipitation 0.00 in - - ()
Sea Level Pressure  
Sea Level Pressure 30.28 in    
Wind  
Wind Speed 2 mph (SW)    
Max Wind Speed 13 mph    
Max Gust Speed 18 mph    
Visibility 10 miles    
Events      
Averages and records for this station are not official NWS values.
T = Trace of Precipitation, MM = Missing Value Source: NWS Daily Summary

Daily Weather History Graph

Daily Weather History Graph

Search for Another Location

Airport or City:

Trip Planner

Search our weather history database for the weather conditions in past years. The results will help you decide how hot, cold, wet, or windy it might be!

Date:

Astronomy

Mar. 08, 2014 Rise Set
Actual Time 6:22 AM PST 6:00 PM PST
Civil Twilight 5:55 AM PST 6:27 PM PST
Nautical Twilight 5:24 AM PST 6:58 PM PST
Astronomical Twilight 4:53 AM PST 7:29 PM PST
Moon 11:10 AM PST (3/8) 1:00 AM PST (3/8)
Length of Visible Light 12h 31m
Length of Day
11h 37m
First Quarter, 53% of the Moon is Illuminated
Mar 8
First Quarter
Mar 16
Full
Mar 23
Last Quarter
Mar 30
New
Apr 7
First Quarter

Hourly Weather History & Observations

Time (PST) Temp. Windchill Dew Point Humidity Pressure Visibility Wind Dir Wind Speed Gust Speed Precip Events Conditions
12:15 AM 26.6 °F 22.6 °F 23.0 °F 86% 30.29 in 10.0 mi East 3.5 mph - N/A   Clear
12:35 AM 21.2 °F - 21.2 °F 100% 30.29 in 10.0 mi Calm Calm - N/A   Clear
12:55 AM 24.8 °F - 23.0 °F 93% 30.29 in 10.0 mi Calm Calm - N/A   Clear
1:15 AM 24.8 °F - 21.2 °F 86% 30.29 in 10.0 mi Calm Calm - N/A   Clear
1:35 AM 21.2 °F - 19.4 °F 93% 30.29 in 10.0 mi Calm Calm - N/A   Clear
1:55 AM 21.2 °F - 19.4 °F 93% 30.29 in 10.0 mi Calm Calm - N/A   Clear
2:15 AM 23.0 °F - 21.2 °F 93% 30.28 in 10.0 mi Calm Calm - N/A   Clear
2:30 AM 23.0 °F - 21.2 °F 93% 30.28 in 10.0 mi Calm Calm - N/A   Clear
2:55 AM 23.0 °F - 23.0 °F 100% 30.28 in 10.0 mi Calm Calm - N/A   Clear
3:15 AM 23.0 °F - 21.2 °F 93% 30.27 in 10.0 mi Calm Calm - N/A   Clear
3:35 AM 21.2 °F - 21.2 °F 100% 30.27 in 10.0 mi Calm Calm - N/A   Clear
3:55 AM 23.0 °F - 21.2 °F 93% 30.28 in 10.0 mi Calm Calm - N/A   Clear
4:15 AM 21.2 °F - 21.2 °F 100% 30.28 in 10.0 mi Calm Calm - N/A   Clear
4:35 AM 23.0 °F - 23.0 °F 100% 30.28 in 10.0 mi Calm Calm - N/A   Clear
4:55 AM 23.0 °F - 21.2 °F 93% 30.28 in 10.0 mi Calm Calm - N/A   Clear
5:15 AM 21.2 °F - 19.4 °F 93% 30.28 in 10.0 mi Calm Calm - N/A   Clear
5:35 AM 21.2 °F - 19.4 °F 93% 30.28 in 10.0 mi Calm Calm - N/A   Clear
6:45 AM 19.4 °F - 17.6 °F 93% 30.29 in 10.0 mi Calm Calm - N/A   Clear
7:45 AM 26.6 °F - 24.8 °F 93% 30.29 in 10.0 mi Calm Calm - N/A   Clear
8:50 AM 32.0 °F - 24.8 °F 75% 30.29 in 10.0 mi Calm Calm - N/A   Clear
9:50 AM 39.2 °F - 26.6 °F 61% 30.29 in 10.0 mi Calm Calm - N/A   Clear
10:50 AM 46.4 °F - 24.8 °F 43% 30.28 in 10.0 mi Calm Calm - N/A   Clear
11:50 AM 55.4 °F - 23.0 °F 29% 30.26 in 10.0 mi East 3.5 mph - N/A   Clear
1:55 PM 62.6 °F - 19.4 °F 19% 30.22 in 10.0 mi WNW 12.7 mph 18.4 mph N/A   Clear
2:50 PM 62.6 °F - 10.4 °F 13% 30.22 in 10.0 mi SW 10.4 mph - N/A   Clear
3:45 PM 62.6 °F - 14.0 °F 15% 30.22 in 10.0 mi South 10.4 mph 16.1 mph N/A   Clear
4:04 PM 55.4 °F - 12.2 °F 18% 30.23 in 10.0 mi WSW 6.9 mph - N/A   Mostly Cloudy
4:55 PM 55.4 °F - 14.0 °F 20% 30.24 in 10.0 mi SW 8.1 mph - N/A   Clear
5:15 PM 51.8 °F - 30.2 °F 44% 30.25 in 10.0 mi West 8.1 mph - N/A   Clear
5:35 PM 51.8 °F - 30.2 °F 44% 30.25 in 10.0 mi West 6.9 mph - N/A   Clear
5:55 PM 50.0 °F - 32.0 °F 50% 30.26 in 10.0 mi West 3.5 mph - N/A   Clear
6:15 PM 50.0 °F - 32.0 °F 50% 30.26 in 10.0 mi WNW 4.6 mph - N/A   Clear
6:35 PM 44.6 °F - 32.0 °F 61% 30.27 in 10.0 mi Calm Calm - N/A   Clear
6:55 PM 42.8 °F - 30.2 °F 61% 30.28 in 10.0 mi Calm Calm - N/A   Clear
7:10 PM 41.0 °F 39.0 °F 28.4 °F 61% 30.29 in 10.0 mi ESE 3.5 mph - N/A   Clear
7:35 PM 41.0 °F - 28.4 °F 61% 30.30 in 10.0 mi Calm Calm - N/A   Clear
7:55 PM 41.0 °F - 28.4 °F 61% 30.31 in 10.0 mi Calm Calm - N/A   Clear
8:15 PM 41.0 °F - 28.4 °F 61% 30.31 in 10.0 mi Calm Calm - N/A   Clear
8:35 PM 41.0 °F - 28.4 °F 61% 30.31 in 10.0 mi Calm Calm - N/A   Clear
8:55 PM 37.4 °F 34.9 °F 26.6 °F 65% 30.31 in 10.0 mi SSE 3.5 mph - N/A   Clear
9:15 PM 39.2 °F 35.9 °F 28.4 °F 65% 30.31 in 10.0 mi WSW 4.6 mph - N/A   Clear
9:35 PM 37.4 °F - 28.4 °F 70% 30.32 in 10.0 mi Calm Calm - N/A   Clear
9:55 PM 41.0 °F - 26.6 °F 57% 30.32 in 10.0 mi Calm Calm - N/A   Clear
10:15 PM 39.2 °F - 26.6 °F 61% 30.32 in 10.0 mi Calm Calm - N/A   Clear
10:35 PM 41.0 °F - 24.8 °F 53% 30.31 in 10.0 mi Calm Calm - N/A   Clear
10:55 PM 41.0 °F 39.0 °F 28.4 °F 61% 30.31 in 10.0 mi ENE 3.5 mph - N/A   Clear
11:15 PM 37.4 °F 34.9 °F 28.4 °F 70% 30.31 in 10.0 mi NE 3.5 mph - N/A   Clear
11:35 PM 37.4 °F - 26.6 °F 65% 30.31 in 10.0 mi Calm Calm - N/A   Clear
11:55 PM 35.6 °F - 26.6 °F 70% 30.31 in 10.0 mi Calm Calm - N/A   Clear